TimeCET,TemperatureF,Dew PointF,Humidity,Sea Level PressureIn,VisibilityMPH,Wind Direction,Wind SpeedMPH,Gust SpeedMPH,PrecipitationIn,Events,Conditions,WindDirDegrees,DateUTC
12:00 AM,44,40,79,30.11,7,SSE,8.9,,,,Overcast,150,2013-12-17 23:00:00
12:25 AM,44.6,39.2,81,30.09,6.2,SSE,9.2,-,N/A,,Overcast,150,2013-12-17 23:25:00
12:55 AM,44.6,39.2,81,30.06,6.2,SSE,9.2,-,N/A,,Overcast,160,2013-12-17 23:55:00
1:00 AM,45,39,72,30.08,11,SSE,11.2,,,,Partly Cloudy,160,2013-12-18 00:00:00
1:25 AM,44.6,39.2,81,30.06,6.2,SSE,11.5,-,N/A,,Overcast,160,2013-12-18 00:25:00
1:55 AM,44.6,39.2,81,30.06,6.2,SSE,9.2,-,N/A,,Overcast,160,2013-12-18 00:55:00
2:00 AM,45,39,72,30.06,10,South,11.2,,,,Overcast,170,2013-12-18 01:00:00
2:25 AM,44.6,39.2,81,30.04,6.2,South,10.4,-,N/A,,Overcast,170,2013-12-18 01:25:00
2:55 AM,44.6,39.2,81,30.04,6.2,South,10.4,-,N/A,,Scattered Clouds,170,2013-12-18 01:55:00
3:00 AM,44,39,76,30.05,10,South,8.9,,,,Scattered Clouds,180,2013-12-18 02:00:00
3:25 AM,44.6,39.2,81,30.04,6.2,South,10.4,-,N/A,,Mostly Cloudy,180,2013-12-18 02:25:00
3:55 AM,46.4,41.0,81,30.04,6.2,South,11.5,-,N/A,,Overcast,190,2013-12-18 02:55:00
4:00 AM,46,41,77,30.03,9,South,11.2,,,,Overcast,190,2013-12-18 03:00:00
4:25 AM,46.4,41.0,81,30.01,6.2,South,13.8,-,N/A,,Overcast,190,2013-12-18 03:25:00
4:55 AM,46.4,41.0,81,30.01,6.2,South,13.8,-,N/A,,Overcast,190,2013-12-18 03:55:00
5:00 AM,47,42,75,30.02,9,South,15.7,,,,Overcast,190,2013-12-18 04:00:00
5:25 AM,46.4,42.8,87,30.01,6.2,South,13.8,-,N/A,,Overcast,190,2013-12-18 04:25:00
5:55 AM,48.2,42.8,82,30.01,6.2,South,13.8,-,N/A,,Mostly Cloudy,190,2013-12-18 04:55:00
6:00 AM,47,43,79,30.01,9,South,13.4,,,,Overcast,190,2013-12-18 05:00:00
6:25 AM,46.4,42.8,87,30.01,6.2,South,13.8,-,N/A,,Scattered Clouds,190,2013-12-18 05:25:00
6:55 AM,46.4,42.8,87,30.01,6.2,South,15.0,-,N/A,,Scattered Clouds,190,2013-12-18 05:55:00
7:00 AM,47,43,80,30.01,7,SSW,15.7,,,,Partly Cloudy,200,2013-12-18 06:00:00
7:25 AM,46.4,42.8,87,30.01,6.2,SSW,12.7,-,N/A,,Mostly Cloudy,200,2013-12-18 06:25:00
7:55 AM,46.4,42.8,87,30.01,6.2,South,13.8,-,N/A,,Scattered Clouds,190,2013-12-18 06:55:00
8:00 AM,46,43,84,30.02,7,SSW,13.4,,,,Scattered Clouds,200,2013-12-18 07:00:00
8:25 AM,46.4,42.8,87,30.01,6.2,South,13.8,-,N/A,,Overcast,190,2013-12-18 07:25:00
8:55 AM,46.4,42.8,87,30.01,6.2,South,16.1,-,N/A,,Overcast,190,2013-12-18 07:55:00
9:00 AM,47,43,79,30.03,7,SSW,15.7,,,,Overcast,200,2013-12-18 08:00:00
9:25 AM,46.4,42.8,87,30.01,3.1,SSW,17.3,-,N/A,Rain,Light Rain,200,2013-12-18 08:25:00
9:55 AM,46.4,42.8,87,30.01,6.2,SSW,17.3,-,N/A,,Overcast,210,2013-12-18 08:55:00
10:00 AM,47,43,80,30.03,9,SSW,22.4,,,Rain,Rain,210,2013-12-18 09:00:00
10:25 AM,46.4,42.8,87,30.04,6.2,SSW,17.3,-,N/A,,Mostly Cloudy,210,2013-12-18 09:25:00
10:55 AM,46.4,42.8,87,30.04,6.2,SSW,18.4,-,N/A,,Mostly Cloudy,210,2013-12-18 09:55:00
11:00 AM,47,43,80,30.04,12,SSW,17.9,,,,Partly Cloudy,210,2013-12-18 10:00:00
11:25 AM,46.4,42.8,87,30.04,6.2,SSW,17.3,-,N/A,,Scattered Clouds,210,2013-12-18 10:25:00
11:55 AM,46.4,42.8,87,30.01,6.2,SSW,15.0,-,N/A,,Mostly Cloudy,200,2013-12-18 10:55:00
12:00 PM,47,43,80,30.02,9,SSW,15.7,,,,Partly Cloudy,200,2013-12-18 11:00:00
12:25 PM,48.2,42.8,82,30.01,6.2,SSW,13.8,-,N/A,,Scattered Clouds,200,2013-12-18 11:25:00
12:55 PM,46.4,42.8,87,29.98,6.2,South,12.7,-,N/A,,Partly Cloudy,190,2013-12-18 11:55:00
1:00 PM,46,42,80,30.00,10,South,13.4,,,,Partly Cloudy,190,2013-12-18 12:00:00
1:25 PM,46.4,42.8,87,29.98,6.2,South,11.5,-,N/A,,Partly Cloudy,190,2013-12-18 12:25:00
1:55 PM,48.2,42.8,82,29.98,6.2,South,11.5,-,N/A,,Unknown,190,2013-12-18 12:55:00
2:00 PM,47,42,76,29.97,11,South,13.4,,,,Overcast,190,2013-12-18 13:00:00
2:25 PM,48.2,41.0,76,29.95,6.2,South,13.8,-,N/A,,Partly Cloudy,190,2013-12-18 13:25:00
2:55 PM,46.4,41.0,81,29.95,6.2,South,15.0,-,N/A,,Unknown,190,2013-12-18 13:55:00
3:00 PM,47,41,71,29.95,13,South,15.7,,,,Scattered Clouds,190,2013-12-18 14:00:00
3:25 PM,46.4,41.0,81,29.92,6.2,South,12.7,-,N/A,,Unknown,190,2013-12-18 14:25:00
3:55 PM,46.4,41.0,81,29.92,6.2,South,13.8,-,N/A,,Unknown,180,2013-12-18 14:55:00
4:00 PM,46,40,72,29.93,17,South,13.4,,,,,180,2013-12-18 15:00:00
4:25 PM,46.4,41.0,81,29.92,6.2,South,11.5,-,N/A,,Unknown,170,2013-12-18 15:25:00
4:55 PM,44.6,39.2,81,29.89,6.2,SSE,12.7,-,N/A,,Unknown,160,2013-12-18 15:55:00
5:00 PM,45,40,75,29.89,17,South,13.4,,,,,170,2013-12-18 16:00:00
5:25 PM,44.6,39.2,81,29.86,6.2,SSE,13.8,-,N/A,,Unknown,160,2013-12-18 16:25:00
5:55 PM,44.6,39.2,81,29.86,6.2,South,16.1,-,N/A,,Unknown,170,2013-12-18 16:55:00
6:00 PM,45,39,73,29.86,15,South,15.7,,,,Scattered Clouds,170,2013-12-18 17:00:00
6:25 PM,44.6,39.2,81,29.83,6.2,South,15.0,-,N/A,,Unknown,170,2013-12-18 17:25:00
6:55 PM,44.6,39.2,81,29.83,6.2,South,16.1,-,N/A,,Unknown,170,2013-12-18 17:55:00
7:00 PM,45,39,72,29.82,16,South,15.7,,,,Partly Cloudy,170,2013-12-18 18:00:00
7:25 PM,44.6,39.2,81,29.80,6.2,South,17.3,-,N/A,,Unknown,170,2013-12-18 18:25:00
7:55 PM,44.6,39.2,81,29.77,6.2,South,17.3,-,N/A,,Unknown,170,2013-12-18 18:55:00
8:00 PM,45,40,75,29.78,14,South,15.7,,,,,170,2013-12-18 19:00:00
8:25 PM,44.6,39.2,81,29.77,6.2,South,16.1,-,N/A,,Unknown,170,2013-12-18 19:25:00
8:55 PM,44.6,41.0,87,29.71,6.2,South,16.1,-,N/A,,Partly Cloudy,170,2013-12-18 19:55:00
9:00 PM,46,41,77,29.73,9,South,17.9,,,,Scattered Clouds,170,2013-12-18 20:00:00
9:25 PM,44.6,41.0,87,29.68,6.2,SSE,17.3,-,N/A,,Partly Cloudy,160,2013-12-18 20:25:00
9:55 PM,44.6,41.0,87,29.68,6.2,South,16.1,-,N/A,,Partly Cloudy,170,2013-12-18 20:55:00
10:00 PM,46,42,80,29.68,9,South,15.7,,,,Scattered Clouds,170,2013-12-18 21:00:00
10:25 PM,46.4,42.8,87,29.65,6.2,South,16.1,-,N/A,,Scattered Clouds,170,2013-12-18 21:25:00
10:55 PM,46.4,42.8,87,29.62,6.2,SSE,13.8,-,N/A,,Partly Cloudy,160,2013-12-18 21:55:00
11:00 PM,46,42,82,29.63,9,SSE,15.7,,,,Partly Cloudy,160,2013-12-18 22:00:00
11:25 PM,46.4,42.8,87,29.59,6.2,South,16.1,-,N/A,,Unknown,170,2013-12-18 22:25:00
11:55 PM,48.2,42.8,82,29.59,6.2,SSE,17.3,-,N/A,,Unknown,160,2013-12-18 22:55:00